This is the latest recevied weather packets stored in our database for station/object WD8INF-9. If no packets are shown the sender has not sent any weather packets the latest 10 day(s).
| Time | Temp. | Humidity | Pressure | Rain* | Wind** | Luminosity | Snow |
|---|---|---|---|---|---|---|---|
| 1777659685 | 16.11° C | - | 1012.8 hPa | 0 mm | - | - | - |
| 1777659385 | 13.33° C | - | 1012.5 hPa | 0 mm | - | - | - |
| 1777659084 | 15.56° C | - | 1012.4 hPa | 0 mm | - | - | - |
| 1777658784 | 15° C | - | 1012.6 hPa | 0 mm | - | - | - |
| 1777658484 | 15.56° C | - | 1012.4 hPa | 0 mm | - | - | - |
| 1777658184 | 14.44° C | - | 1012.3 hPa | 0 mm | - | - | - |
| 1777657881 | 12.78° C | - | 1012.4 hPa | 0 mm | - | - | - |
| 1777657581 | 14.44° C | - | 1012.3 hPa | 0 mm | - | - | - |
| 1777657281 | 14.44° C | - | 1012.2 hPa | 0 mm | - | - | - |
| 1777656980 | 13.89° C | - | 1012.1 hPa | 0 mm | - | - | - |
| 1777656680 | 13.89° C | - | 1012.1 hPa | 0 mm | - | - | - |
| 1777656380 | 14.44° C | - | 1011.9 hPa | 0 mm | - | - | - |
| 1777656079 | 13.33° C | - | 1011.8 hPa | 0 mm | - | - | - |
| 1777655780 | 15° C | - | 1012 hPa | 0 mm | - | - | - |
| 1777655478 | 13.89° C | - | 1012 hPa | 0 mm | - | - | - |
| 1777655178 | 14.44° C | - | 1012.1 hPa | 0 mm | - | - | - |
| 1777654877 | 12.22° C | - | 1012 hPa | 0 mm | - | - | - |
| 1777654577 | 12.78° C | - | 1012.1 hPa | 0 mm | - | - | - |
| 1777654277 | 11.67° C | - | 1011.7 hPa | 0 mm | - | - | - |
| 1777653977 | 10° C | - | 1012 hPa | 0 mm | - | - | - |
| 1777653676 | 9.44° C | - | 1011.9 hPa | 0 mm | - | - | - |
| 1777653377 | 9.44° C | - | 1011.6 hPa | 0 mm | - | - | - |
| 1777653076 | 10° C | - | 1011.7 hPa | 0 mm | - | - | - |
| 1777652775 | 10° C | - | 1011.6 hPa | 0 mm | - | - | - |
| 1777652475 | 10° C | - | 1011.6 hPa | 0 mm | - | - | - |
* Rain since midnight (hover to see other rain measurements)
** Current wind speed in m/s (hover to see current wind gust speed)